Other Surface Observations
Issued by NWS

Home | Current Version | Previous Version | Text Only | Print | Product List | Glossary On
Versions: 1 2 3 4 5 6 7 8 9 10 11 12 13 14 15 16 17 18 19 20 21 22 23 24 25 26 27 28 29 30 31 32 33 34 35 36 37 38 39 40 41 42 43 44 45 46 47 48 49 50
000
SXUS52 KTAE 181518
OSOTAE
OSOTAE
North Florida/South Alabama/Southwest Georgia Weather Roundup
National Weather Service Tallahassee Florida
1100 AM EDT SAT APR 18 2015

Note: "fair" indicates few or no clouds below 12,000 feet with no
significant weather and/or obstructions to visibility.

!FLZ017-115-028-034-025-181600
...North Florida...

CITY           SKY/WX    TMP DP  RH WIND       PRES   REMARKS
TALLAHASSEE    PTSUNNY   78  71  79 W7        29.99R
APALACHICOLA   CLOUDY    80  73  79 W7        29.99R
PERRY          PTSUNNY   80  72  76 SW12      29.99R
CROSS CITY       N/A    N/A N/A N/A MISG      29.99R
JACKSONVILLE   PTSUNNY   78  70  76 W5        29.98R
$$

!FLZ112-006-005-002-011-181600
...Florida Panhandle...

CITY           SKY/WX    TMP DP  RH WIND       PRES   REMARKS
MARIANNA       LGT RAIN  73  72  96 SW6       29.99R
BONIFAY        CLOUDY    69  68  96 SW3       30.00R
PANAMA CITY NW LGT RAIN  76  72  87 S3        29.97R
TYNDALL AFB    PTSUNNY   77  72  85 CALM      29.99R
TYND DRONE APT FAIR      76  74  94 SW5       29.98S
DE FUNIAK SPR  FOG       68  68 100 CALM      29.99S VSB 1/2
EGLIN AFB      LGT RAIN  72  70  94 SW1       29.98R FOG
DESTIN         LGT RAIN  75  72  90 CALM      29.98R
HURLBURT       CLOUDY    74  66  76 VRB6      29.97S
CRESTVIEW      LGT RAIN  67  67 100 CALM      30.00R
PENSACOLA      LGT RAIN  70  68  93 CALM      29.98R FOG
$$

!ALZ063-066-181600
...South Alabama...

CITY           SKY/WX    TMP DP  RH WIND       PRES   REMARKS
DOTHAN         CLOUDY    65  63  93 CALM      30.02R
OZARK CAIRNS   CLOUDY    64  63  94 CALM      30.00R
FT RUCKER HELI CLOUDY    66  63  90 CALM      29.99R
RUCKER HELI 3  NOT AVBL
RUCKER HELI 2  CLOUDY    65  65 100 CALM      29.99F
FLORALA APT    CLOUDY    66  64  93 CALM      30.01
ANDALUSIA      NOT AVBL
TROY           CLOUDY    67  64  90 CALM      29.99S
EUFALA         CLOUDY    67  64  90 CALM      29.98R
MOBILE         LGT RAIN  67  67 100 SE6       30.00R VSB 1
$$

!GAZ120>161-181600
...Southwest and South Central Georgia...

CITY           SKY/WX    TMP DP  RH WIND       PRES   REMARKS
THOMASVILLE    CLOUDY    73  72  94 SW5       29.99S
BAINBRIDGE     PTSUNNY   75  73  94 SW3       29.98S
MOODY AFB      PTSUNNY   77  70  78 SW7       29.98
VALDOSTA       MOSUNNY   78  70  76 VRB6      29.99R
MOULTRIE       CLOUDY    73 N/A N/A SW6       30.00R
BLAKELY        CLOUDY    70  70 100 CALM      30.00R
ALBANY         CLOUDY    69  66  90 W5        30.02R
TIFTON         CLOUDY    73  69  88 W5        29.99R
FITZGERALD     CLOUDY    76  71  84 W7        30.01R
CORDELE        CLOUDY    70  67  88 W5        30.00R
AMERICUS       CLOUDY    70  66  88 W6        30.01R
HOMERVILLE     CLOUDY    79  72  78 SW8       29.99R
$$

!GMZ750-755-770-775-181600
...Coastal and Buoy Obs...

STATION/POSITION TIME  TEMP    WIND        PRES    VSBY  WAVE
                       AIR SEA DIR/SP/G                  HT/PER
                 (UTC) (F)     (DEG/KT/KT) (MB)    (MI)  (FT/S)
KEATON BEACH     1500   76     240/ 10/ 11 1016.1R
CEDAR KEY        1500   78     260/  6/  9 1016.3R
C TOWER          1500   74     220/  7/  7 1015.7R
APALACHICOLA BUO 1450   77 76  240/  6/  6 1015.8R         2/ 5
PANAMA CITY BUOY 1450   77 77  210/  4/  6 1015.7R         2/ 4
MOBILE BUOY      1450   72 75   40/ 10/ 12 1014.5F         2/ 5
ORANGE BCH AL BU 1450   73 73  160/  6/  8 1014.2R         2/ 6
$$



USA.gov is the U.S. government's official web portal to all federal, state and local government web resources and services.